Date,TemperatureHighF,TemperatureAvgF,TemperatureLowF,DewpointHighF,DewpointAvgF,DewpointLowF,HumidityHigh,HumidityAvg,HumidityLow,PressureMaxIn,PressureMinIn,WindSpeedMaxMPH,WindSpeedAvgMPH,GustSpeedMaxMPH,PrecipitationSumIn
2013-1-1,78,74,70,62,59,56,69,60,55,30.24,30.06,17,6,17,0.00
2013-1-2,79,73,67,67,63,58,79,72,67,30.15,30.03,10,3,10,0.00
2013-1-3,82,74,69,70,67,65,86,77,66,30.15,30.06,12,4,12,0.00
2013-1-4,80,74,68,72,68,65,91,84,75,30.27,30.12,10,4,10,0.00
2013-1-5,77,71,68,71,68,66,94,90,81,30.27,30.18,12,4,12,0.11
2013-1-6,82,76,69,73,70,66,91,82,73,30.21,30.09,13,6,13,0.00
2013-1-7,74,72,70,70,69,67,92,89,83,30.21,30.09,12,5,12,0.41
2013-1-8,81,77,74,73,71,70,89,82,74,30.24,30.09,17,7,17,0.03
2013-1-9,82,78,76,72,70,68,86,78,71,30.33,30.18,57,9,58,0.00
2013-1-10,80,77,75,69,66,64,77,68,59,30.33,30.18,17,9,17,0.00
2013-1-11,80,77,75,69,67,64,76,71,65,30.27,30.18,17,8,17,0.01
2013-1-12,81,77,74,68,66,63,79,70,62,30.24,30.12,16,6,16,0.03
2013-1-13,81,76,74,67,64,62,74,67,60,30.15,30.09,17,8,17,0.00
2013-1-14,81,76,74,65,63,60,68,63,56,30.24,30.12,15,7,15,0.00
2013-1-15,80,77,75,67,64,61,75,66,60,30.18,30.06,13,6,13,0.00
2013-1-16,82,77,72,69,65,60,72,67,61,30.15,30.03,13,6,13,0.03
2013-1-17,78,72,63,70,65,53,84,78,72,30.12,30.00,25,6,25,0.74
2013-1-18,70,64,54,59,52,44,72,65,56,30.27,30.12,18,9,18,0.00
2013-1-19,72,70,67,67,63,56,94,79,60,30.24,30.12,13,5,13,0.28
2013-1-20,77,71,66,71,67,65,97,87,75,30.18,30.06,12,4,12,0.04
2013-1-21,80,74,68,71,67,63,87,80,73,30.09,30.00,13,5,13,0.05
2013-1-22,74,69,64,64,58,50,92,71,49,30.24,30.00,18,9,18,0.00
2013-1-23,74,69,64,55,51,48,67,53,45,30.33,30.18,15,7,15,0.00
2013-1-24,74,67,62,53,50,45,71,55,42,30.33,30.21,10,6,10,0.00
2013-1-25,77,69,62,58,52,46,64,56,47,30.33,30.18,12,4,12,0.00
2013-1-26,77,70,62,58,56,51,74,60,50,30.27,30.18,10,5,10,0.00
2013-1-27,79,74,68,61,58,55,69,59,46,30.33,30.18,15,6,15,0.00
2013-1-28,81,76,73,65,62,59,70,62,53,30.36,30.24,17,8,17,0.00
2013-1-29,80,76,74,68,65,16,74,69,64,30.30,30.15,15,8,15,0.01
2013-1-30,81,76,73,68,64,62,73,68,63,30.15,30.00,20,9,20,0.03
2013-1-31,75,68,61,69,57,38,86,68,42,30.21,29.94,17,7,17,0.05